sat.trackr.live / text

‹ back to catalog

STARLINK-33813

NORAD 63585 · 2025-076S

PAYLOAD ACTIVE UNKNOWN

§ Identity

Operator
Country
US
Launch date
2025-04-14
Launch site
AFETR
Launch vehicle
Mass (kg)
RCS (m²)

Purposes: comms

External: N2YO · Heavens-Above · Gunter

§ Orbital elements

Epoch: 2026-05-24T23:37:31.384992Z

Period
94.27 min
Inclination
42.9983°
Eccentricity
0.0001016
Mean motion
15.27585522 rev/d
Perigee alt
482.3 km
Apogee alt
483.7 km
Semi-major
6,861.2 km
B*
3.8673e-4
RAAN
250.3905°
Arg perigee
271.3047°
Mean anomaly
88.7688°
Rev number
6,350

§ Raw data

STARLINK-338131 63585U 25076S   26144.98439103  .00010397  00000+0  38673-3 0  99902 63585  42.9983 250.3905 0001016 271.3047  88.7688 15.27585522 63501

JSON: /api/v1/satellites/63585 · /tle

For live sub-satellite position, see the globe view (requires WebGL).

§ Visibility from observer

Set your observer location to see the next 7 days of passes ≥ 10°. The values pass through the URL so the page stays shareable.

No JS? Fill the form by hand. The geolocation button needs JavaScript.